Powrót do katalogu

COSMOS 1375 DEB

AktywnyLEO
NORAD 17106·DEBRIS·🇷🇺 Russia

Wystrzelony Jun 6, 1982 z Plesetsk Cosmodrome

Loading…

Następne Przeloty (najbliższe 24 godziny)

TLE

ŚwieżeSource: Space-Track

Epoka: Sep 14, 2026, 05:45 UTC

1 17106U 82055AH  26257.23959785  .00000174  00000-0  22148-3 0  9997
2 17106  65.8276 109.8162 0012810 126.0244 349.4315 13.86365978232641

Śledź COSMOS 1375 DEB w czasie rzeczywistym z AllMySat

Download on the App Store